Change the Weather History Date:

Friday, January 31, 2014

  Actual Average Record
Temperature  
Mean Temperature 64 °F -  
Max Temperature 71 °F 64 °F 84 °F (2003)
Min Temperature 56 °F 40 °F 22 °F (1949)
Degree Days  
Heating Degree Days 2    
Growing Degree Days 14 (Base 50)    
Moisture  
Dew Point 30 °F    
Average Humidity 30    
Maximum Humidity 59    
Minimum Humidity 19    
Precipitation  
Precipitation 0.00 in - - ()
Sea Level Pressure  
Sea Level Pressure 29.77 in    
Wind  
Wind Speed 7 mph (WSW)    
Max Wind Speed 20 mph    
Max Gust Speed 28 mph    
Visibility 10 miles    
Events      
Averages and records for this station are not official NWS values.
T = Trace of Precipitation, MM = Missing Value Source: NWS Daily Summary

Daily Weather History Graph

Daily Weather History Graph

Search for Another Location

Airport or City:

Trip Planner

Search our weather history database for the weather conditions in past years. The results will help you decide how hot, cold, wet, or windy it might be!

Date:

Astronomy

Jan. 31, 2014 Rise Set
Actual Time 7:17 AM MST 5:56 PM MST
Civil Twilight 6:52 AM MST 6:22 PM MST
Nautical Twilight 6:22 AM MST 6:51 PM MST
Astronomical Twilight 5:54 AM MST 7:20 PM MST
Moon 7:36 AM MST (1/31) 7:16 PM MST (1/31)
Length of Visible Light 11h 29m
Length of Day
10h 38m
New Moon, 1% of the Moon is Illuminated
Jan 31
New Moon
Feb 6
First Quarter
Feb 14
Full
Feb 22
Last Quarter
Mar 1
New

Hourly Weather History & Observations

Time (MST) Temp. Dew Point Humidity Pressure Visibility Wind Dir Wind Speed Gust Speed Precip Events Conditions
12:58 AM 63.9 °F 21.2 °F 20% 29.76 in 10.0 mi SSW 2.3 mph - N/A   Partly Cloudy
1:58 AM 64.4 °F 22.8 °F 21% 29.76 in 10.0 mi Variable 4.6 mph - N/A   Mostly Cloudy
2:58 AM 64.0 °F 23.7 °F 22% 29.76 in 10.0 mi Calm Calm - N/A   Mostly Cloudy
3:58 AM 62.8 °F 24.8 °F 24% 29.75 in 10.0 mi NNE 1.2 mph - N/A   Mostly Cloudy
4:58 AM 61.9 °F 25.7 °F 25% 29.75 in 10.0 mi East 3.5 mph - N/A   Mostly Cloudy
5:58 AM 62.2 °F 26.2 °F 25% 29.77 in 10.0 mi South 6.9 mph - N/A   Overcast
6:58 AM 61.5 °F 26.6 °F 27% 29.78 in 10.0 mi South 10.4 mph - N/A   Overcast
7:58 AM 61.7 °F 27.7 °F 28% 29.79 in 10.0 mi South 4.6 mph - N/A   Mostly Cloudy
8:58 AM 61.7 °F 29.1 °F 29% 29.79 in 10.0 mi SW 8.1 mph - N/A   Scattered Clouds
9:58 AM 64.4 °F 30.0 °F 28% 29.81 in 10.0 mi SW 12.7 mph - N/A   Clear
10:58 AM 67.3 °F 26.2 °F 21% 29.81 in 10.0 mi SSW 17.3 mph - N/A   Partly Cloudy
11:49 AM 68.0 °F 26.6 °F 21% 29.88 in 10.0 mi WSW 19.6 mph 27.6 mph N/A   Partly Cloudy
11:58 AM 69.8 °F 25.9 °F 19% 29.80 in 10.0 mi SW 13.8 mph - N/A   Partly Cloudy
12:58 PM 71.2 °F 27.5 °F 20% 29.76 in 10.0 mi WSW 12.7 mph 24.2 mph N/A   Mostly Cloudy
1:58 PM 70.7 °F 29.5 °F 22% 29.73 in 10.0 mi West 15.0 mph 21.9 mph N/A   Scattered Clouds
2:58 PM 70.9 °F 31.5 °F 23% 29.72 in 10.0 mi West 15.0 mph - N/A   Scattered Clouds
3:58 PM 68.2 °F 31.5 °F 26% 29.72 in 10.0 mi West 13.8 mph 19.6 mph N/A   Mostly Cloudy
4:58 PM 65.7 °F 33.8 °F 31% 29.74 in 10.0 mi NW 11.5 mph 18.4 mph N/A   Scattered Clouds
5:58 PM 63.7 °F 37.4 °F 38% 29.75 in 10.0 mi NW 10.4 mph - N/A   Scattered Clouds
6:58 PM 62.4 °F 38.1 °F 41% 29.75 in 10.0 mi WNW 12.7 mph - N/A   Overcast
7:58 PM 61.3 °F 37.6 °F 41% 29.78 in 10.0 mi NW 8.1 mph - N/A   Mostly Cloudy
8:58 PM 58.1 °F 36.0 °F 44% 29.79 in 10.0 mi NW 6.9 mph - N/A   Overcast
9:58 PM 57.6 °F 36.5 °F 45% 29.79 in 10.0 mi NW 5.8 mph - N/A   Mostly Cloudy
10:58 PM 56.7 °F 36.9 °F 48% 29.78 in 10.0 mi SW 3.5 mph - N/A   Mostly Cloudy
11:58 PM 56.5 °F 42.1 °F 59% 29.78 in 10.0 mi WSW 4.6 mph - N/A   Overcast